sat.trackr.live / text

‹ back to catalog

STARLINK-3233

NORAD 49746 · 2021-115Y

PAYLOAD ACTIVE UNKNOWN

§ Identity

Operator
Country
US
Launch date
2021-12-02
Launch site
AFETR
Launch vehicle
Mass (kg)
RCS (m²)

Purposes: comms

External: N2YO · Heavens-Above · Gunter

§ Orbital elements

Epoch: 2026-05-25T02:04:53.668128Z

Period
95.44 min
Inclination
53.2114°
Eccentricity
0.0001248
Mean motion
15.08837453 rev/d
Perigee alt
538.9 km
Apogee alt
540.6 km
Semi-major
6,917.9 km
B*
-2.2586e-5
RAAN
166.1610°
Arg perigee
83.3082°
Mean anomaly
276.8053°
Rev number
24,706

§ Raw data

STARLINK-32331 49746U 21115Y   26145.08673227 -.00000647  00000+0 -22586-4 0  99982 49746  53.2114 166.1610 0001248  83.3082 276.8053 15.08837453247062

JSON: /api/v1/satellites/49746 · /tle

For live sub-satellite position, see the globe view (requires WebGL).

§ Visibility from observer

Set your observer location to see the next 7 days of passes ≥ 10°. The values pass through the URL so the page stays shareable.

No JS? Fill the form by hand. The geolocation button needs JavaScript.